This is the latest recevied weather packets stored in our database for station/object N8HON. If no packets are shown the sender has not sent any weather packets the latest 10 day(s).
| Time | Temp. | Humidity | Pressure | Rain* | Wind** | Luminosity | Snow |
|---|---|---|---|---|---|---|---|
| 1778182673 | 17.78° C | 43% | 1007.8 hPa | 0 mm | - | 628 W/m² | - |
| 1778182370 | 17.22° C | 47% | 1007.8 hPa | 0 mm | - | 682 W/m² | - |
| 1778182065 | 16.67° C | 47% | 1007.9 hPa | 0 mm | - | 170 W/m² | - |
| 1778181762 | 17.78° C | 47% | 1007.9 hPa | 0 mm | - | 182 W/m² | - |
| 1778181459 | 18.89° C | 42% | 1007.9 hPa | 0 mm | - | 127 W/m² | - |
| 1778181156 | 18.33° C | 47% | 1007.8 hPa | 0 mm | - | 634 W/m² | - |
| 1778180852 | 17.22° C | 51% | 1008 hPa | 0 mm | - | 645 W/m² | - |
| 1778180551 | 17.22° C | 46% | 1008 hPa | 0 mm | - | 174 W/m² | - |
| 1778180249 | 17.78° C | 48% | 1008.1 hPa | 0 mm | - | 160 W/m² | - |
| 1778179946 | 18.89° C | 46% | 1008 hPa | 0 mm | - | 131 W/m² | - |
| 1778179643 | 18.33° C | 46% | 1008 hPa | 0 mm | - | 696 W/m² | - |
| 1778179341 | 18.33° C | 50% | 1008.1 hPa | 0 mm | - | 746 W/m² | - |
| 1778179037 | 17.78° C | 50% | 1007.9 hPa | 0 mm | - | 754 W/m² | - |
| 1778178734 | 17.78° C | 49% | 1008.1 hPa | 0 mm | - | 746 W/m² | - |
| 1778178432 | 17.78° C | 51% | 1008 hPa | 0 mm | - | 755 W/m² | - |
| 1778178127 | 16.67° C | 52% | 1008.1 hPa | 0 mm | - | 745 W/m² | - |
| 1778177823 | 17.22° C | 51% | 1008.1 hPa | 0 mm | - | 191 W/m² | - |
| 1778177520 | 17.22° C | 56% | 1008.2 hPa | 0 mm | - | 760 W/m² | - |
| 1778177216 | 16.67° C | 51% | 1008.3 hPa | 0 mm | - | 766 W/m² | - |
| 1778176914 | 17.22° C | 55% | 1008.3 hPa | 0 mm | - | 658 W/m² | - |
| 1778176609 | 17.22° C | 52% | 1008.3 hPa | 0 mm | - | 574 W/m² | - |
| 1778176307 | 16.67° C | 55% | 1008.4 hPa | 0 mm | - | 709 W/m² | - |
| 1778176004 | 16.67° C | 52% | 1008.5 hPa | 0 mm | - | 823 W/m² | - |
| 1778175702 | 17.22° C | 53% | 1008.8 hPa | 0 mm | - | 317 W/m² | - |
| 1778175399 | 17.78° C | 51% | 1008.8 hPa | 0 mm | - | 820 W/m² | - |
* Rain latest hour (hover to see other rain measurements)
** Current wind speed in m/s (hover to see current wind gust speed)